Tracking 17844 objects as of 27-August-2016
HD Live streaming from Space Station
objects crossing your sky now

SL-16 DEB

Track SL-16 DEB now!
10-day predictions


NORAD ID: 24303
Int'l Code: 1996-051G
Perigee: 823.1 km
Apogee: 923.4 km
Inclination: 71.1 °
Period: 102.3 minutes
Semi major axis: 7244 km
RCS: 0.4797 m2 (medium)
Launch date: September 4, 1996
Source: Commonwealth of Independent States (former USSR) (CIS)
Launch site: TYURATAM MISSILE AND SPACE COMPLEX (TTMTR)

Note: This is SATELLITE DEBRIS
Your satellite tracking list
Your tracking list is empty





NASA's NSSDC Master Catalog

Two Line Element Set (TLE):
1 24303U 96051G   16239.70055536 -.00000288 +00000-0 -13919-3 0  9991
2 24303 071.1045 228.2997 0069173 041.7179 010.2295 14.08033175026498
Source of the keplerian elements: AFSPC

N2YO: 494